This demonstration page uses our WeatherBlox Daily Observations layout. Learn more.

Left ArrowRight Arrow

Hourly Observations for July 14, 2017

Temp ( °F °C ) Dew Point ( °F °C ) Humidity (%) Winds ( mph kmh ) Pressure ( in mb ) Visibility ( mi km ) Precip ( " mm )
12:15 am 00:15 Clear 73 22.7 68 20.1 85 85 SE 5 7 30.09 1019 10 16 0.00 0.00
12:35 am 00:35 Clear 72 22 68 20 88 88 SE 3 6 30.09 1019 7 11 0.00 0.00
12:55 am 00:55 Clear 71 21.9 68 20 89 89 SE 6 9 30.09 1019 7 11 0.00 0.00
1:15 am 01:15 Clear 71 21.7 68 19.8 89 89 ESE 5 7 30.09 1019 7 11 0.00 0.00
1:35 am 01:35 Clear 70 21.2 67 19.5 90 90 E 3 6 30.12 1020 7 11 0.00 0.00
1:55 am 01:55 Partly Cloudy with Mist and Fog 70 21.1 67 19.6 91 91 ESE 5 7 30.12 1020 5 8 0.00 0.00
2:15 am 02:15 Partly Cloudy with Mist and Fog 70 21.2 67 19.6 91 91 SE 5 7 30.12 1020 5 8 0.00 0.00
2:35 am 02:35 Mostly Cloudy with Mist and Fog 69 20.8 67 19.3 91 91 SE 5 7 30.12 1020 4 6 0.00 0.00
2:55 am 02:55 Partly Cloudy with Mist and Fog 70 21 67 19.5 91 91 SE 6 9 30.12 1020 4 6 0.00 0.00
3:15 am 03:15 Clear with Mist and Fog 70 21 67 19.5 91 91 SE 3 6 30.12 1020 4 6 0.00 0.00
3:35 am 03:35 Clear with Mist and Fog 68 20 66 18.7 92 92 Calm 30.09 1019 3 5 0.00 0.00
3:55 am 03:55 Clear with Mist and Fog 67 19.6 65 18.5 93 93 Calm 30.09 1019 3 5 0.00 0.00
4:15 am 04:15 Mostly Cloudy with Mist and Fog 66 19 64 18 94 94 Calm 30.09 1019 1 2 0.00 0.00
4:35 am 04:35 Cloudy with Fog 65 18.2 63 17.2 94 94 Calm 30.09 1019 0 0 0.00 0.00
4:55 am 04:55 Cloudy with Fog 65 18.1 63 17.2 95 95 NNE 3 6 30.09 1019 0 0 0.00 0.00
5:15 am 05:15 Cloudy with Fog 64 18 63 17.1 95 95 ENE 3 6 30.09 1019 1 1 0.00 0.00
5:35 am 05:35 Cloudy with Fog 64 17.7 63 17 96 96 Calm 30.12 1020 0 0 0.00 0.00
5:55 am 05:55 Cloudy with Fog 64 17.7 62 16.9 95 95 Calm 30.12 1020 0 0 0.00 0.00
6:15 am 06:15 Cloudy with Fog 64 17.8 62 16.9 95 95 Calm 30.12 1020 0 0 0.00 0.00
6:35 am 06:35 Cloudy with Fog 65 18.2 64 17.5 96 96 Calm 30.15 1021 5 8 0.00 0.00
6:55 am 06:55 Cloudy with Fog 66 18.8 64 18 95 95 Calm 30.12 1020 5 8 0.00 0.00
7:15 am 07:15 Cloudy with Fog 66 19.1 65 18.4 96 96 Calm 30.12 1020 5 8 0.00 0.00
7:35 am 07:35 Cloudy with Fog 68 19.8 66 19 95 95 ESE 3 6 30.12 1020 5 8 0.00 0.00
7:55 am 07:55 Cloudy with Fog 68 19.8 66 19 95 95 ESE 3 6 30.12 1020 5 8 0.00 0.00
8:15 am 08:15 Cloudy with Fog 68 20 67 19.3 96 96 Calm 30.12 1020 5 8 0.00 0.00
8:35 am 08:35 Cloudy with Fog 69 20.6 68 19.8 95 95 ESE 5 7 30.12 1020 5 8 0.00 0.00
8:55 am 08:55 Cloudy with Fog 70 21.1 68 20.2 95 95 ESE 5 7 30.12 1020 5 8 0.00 0.00
9:15 am 09:15 Cloudy with Fog 70 21.2 69 20.5 96 96 ESE 5 7 30.12 1020 0 0 0.00 0.00
9:35 am 09:35 Cloudy with Mist and Fog 71 21.7 70 20.9 95 95 SE 5 7 30.15 1021 1 2 0.00 0.00
9:55 am 09:55 Cloudy with Mist and Fog 71 21.8 70 21 95 95 SE 3 6 30.15 1021 1 2 0.00 0.00
10:15 am 10:15 Cloudy with Mist and Fog 72 22.1 70 21.3 95 95 SSE 5 7 30.12 1020 3 5 0.00 0.00
10:35 am 10:35 Cloudy 73 22.6 71 21.4 93 93 ESE 5 7 30.12 1020 7 11 0.00 0.00
10:55 am 10:55 Cloudy 74 23.2 70 21.3 89 89 SE 5 7 30.12 1020 7 11 0.00 0.00
11:15 am 11:15 Cloudy 74 23.6 70 20.9 85 85 Calm 30.12 1020 10 16 0.00 0.00
11:35 am 11:35 Cloudy 75 24.1 69 20.4 80 80 E 5 7 30.12 1020 10 16 0.00 0.00
11:55 am 11:55 Cloudy 79 25.9 68 20.1 70 70 SSE 6 9 30.09 1019 10 16 0.00 0.00
12:15 pm 12:15 Cloudy 80 26.4 67 19.7 67 67 ESE 5 7 30.09 1019 10 16 0.00 0.00
12:35 pm 12:35 Mostly Cloudy 81 27.1 68 19.9 65 65 SSE 6 9 30.09 1019 10 16 0.00 0.00
12:55 pm 12:55 Mostly Cloudy 81 27.2 69 20.3 66 66 S 7 11 30.06 1018 10 16 0.00 0.00
1:15 pm 13:15 Mostly Cloudy 82 27.8 68 19.9 62 62 SSE 7 11 30.06 1018 10 16 0.00 0.00
1:35 pm 13:35 Mostly Cloudy 83 28.4 68 19.9 60 60 S 9 15 30.06 1018 10 16 0.00 0.00
1:55 pm 13:55 Partly Cloudy 83 28.6 67 19.4 58 58 S 6 9 30.06 1018 10 16 0.00 0.00
2:15 pm 14:15 Sunny 84 29.1 67 19.5 56 56 S 9 15 30.03 1017 10 16 0.00 0.00
2:35 pm 14:35 Sunny 85 29.5 67 19.5 55 55 S 14 22 30.03 1017 10 16 0.00 0.00
2:55 pm 14:55 Sunny 85 29.5 67 19.5 55 55 S 10 17 30.03 1017 10 16 0.00 0.00
3:15 pm 15:15 Sunny 85 29.6 67 19.3 54 54 S 12 19 30.03 1017 10 16 0.00 0.00
3:35 pm 15:35 Sunny 86 29.9 65 18.6 51 51 SSE 10 17 30.00 1016 10 16 0.00 0.00
3:55 pm 15:55 Sunny 86 30.1 66 19.1 52 52 SSE 12 19 30.00 1016 10 16 0.00 0.00
4:15 pm 16:15 Sunny 87 30.4 66 18.9 50 50 S 9 15 30.00 1016 10 16 0.00 0.00
4:35 pm 16:35 Sunny 87 30.5 66 18.7 49 49 SSE 9 15 30.00 1016 10 16 0.00 0.00
4:55 pm 16:55 Sunny 87 30.6 66 18.7 49 49 S 12 19 30.00 1016 10 16 0.00 0.00
5:15 pm 17:15 Sunny 87 30.5 66 18.8 50 50 S 9 15 30.00 1016 10 16 0.00 0.00
5:35 pm 17:35 Sunny 87 30.6 65 18.1 47 47 SSE 8 13 30.00 1016 10 16 0.00 0.00
5:55 pm 17:55 Sunny 87 30.5 66 18.7 49 49 SSE 10 17 30.00 1016 10 16 0.00 0.00
6:15 pm 18:15 Sunny 87 30.5 65 18.1 47 47 SSE 10 17 29.97 1015 10 16 0.00 0.00
6:35 pm 18:35 Sunny 87 30.3 65 18.3 49 49 SSE 8 13 29.97 1015 10 16 0.00 0.00
6:55 pm 18:55 Sunny 86 30.1 64 18 48 48 SSE 8 13 29.97 1015 10 16 0.00 0.00
7:15 pm 19:15 Sunny 86 30 64 17.7 48 48 SSE 7 11 29.97 1015 10 16 0.00 0.00
7:35 pm 19:35 Sunny 85 29.5 66 19 53 53 SSE 7 11 29.97 1015 10 16 0.00 0.00
7:55 pm 19:55 Sunny 84 29 67 19.4 56 56 SSE 6 9 29.97 1015 10 16 0.00 0.00
8:15 pm 20:15 Sunny 83 28.5 67 19.6 59 59 SSE 6 9 29.97 1015 10 16 0.00 0.00
8:35 pm 20:35 Sunny 82 27.9 67 19.5 60 60 SE 7 11 30.00 1016 10 16 0.00 0.00
8:55 pm 20:55 Sunny 81 27.2 68 20 65 65 SE 6 9 30.03 1017 10 16 0.00 0.00
9:15 pm 21:15 Clear 80 26.5 68 20 68 68 SE 6 9 30.00 1016 10 16 0.00 0.00
9:35 pm 21:35 Clear 79 26 68 20.1 70 70 SE 5 7 30.03 1017 10 16 0.00 0.00
9:55 pm 21:55 Clear 76 24.3 69 20.4 79 79 SSE 6 9 30.06 1018 10 16 0.00 0.00
10:15 pm 22:15 Clear 75 23.7 69 20.5 82 82 S 3 6 30.06 1018 10 16 0.00 0.00
10:35 pm 22:35 Clear 75 23.7 69 20.5 82 82 Calm 30.06 1018 10 16 0.00 0.00
10:55 pm 22:55 Clear 76 24.3 69 20.5 79 79 S 3 6 30.06 1018 10 16 0.00 0.00
11:15 pm 23:15 Clear 74 23.2 69 20.3 84 84 Calm 30.09 1019 10 16 0.00 0.00
11:35 pm 23:35 Clear 70 21.2 67 19.4 90 90 Calm 30.12 1020 10 16 0.00 0.00
11:55 pm 23:55 Clear 71 21.4 68 20.1 92 92 Calm 30.12 1020 7 11 0.00 0.00

Powered by AerisWeather